Wind_Speed
27 26 26 27 30 30 32 34 36 38 22 29 23 22 25 22 18 13 15 13 13 15 15 14 14 13 12 14 17 21 26 35 36 33 34 29 29 31 35 37 39 35 26 24 24
19 21 22 26 25 27 28 30 33 34 30 30 19 23 20 19 20 15 17 15 15 16 17 16 13 11 12 15 19 22 30 33 31 30 32 30 32 32 39 42 40 40 34 31 28
22 24 25 23 19 23 25 26 29 32 33 30 30 28 19 18 19 18 17 18 18 17 15 13 13 14 15 17 18 24 33 30 31 29 30 33 34 34 39 44 45 42 39 37 35
27 25 26 20 21 21 19 28 24 28 34 33 29 31 20 18 13 10 6 9 12 12 12 12 14 16 16 14 17 26 27 24 27 24 29 32 32 35 38 44 42 47 46 44 40
25 25 29 28 25 23 22 20 26 24 25 29 29 26 23 25 20 16 14 13 15 12 12 13 13 15 14 12 18 22 21 24 23 24 26 30 34 35 40 38 36 41 50 51 49
33 34 30 27 26 24 23 20 18 23 24 20 33 29 29 18 19 17 16 13 11 12 13 12 14 14 13 12 16 17 19 16 17 17 18 22 23 26 30 26 32 37 42 54 53
36 37 30 28 24 24 19 17 20 20 22 29 25 23 22 19 16 15 16 13 11 11 12 11 12 11 11 12 15 13 12 12 11 6 11 16 26 21 14 18 24 30 38 45 55
30 26 27 22 26 22 18 15 16 20 24 27 23 34 18 17 15 20 15 12 12 10 12 11 9 9 10 10 12 11 12 10 8 12 10 18 36 21 21 26 27 25 28 38 51
27 24 21 33 22 15 16 14 15 22 23 24 22 21 19 18 16 21 15 12 12 11 10 9 8 9 9 9 10 7 10 15 17 9 15 22 36 22 28 31 25 22 28 33 44
21 12 3 8 14 16 14 14 20 19 28 21 20 10 10 14 12 10 13 13 11 10 8 8 9 10 8 11 4 9 17 23 25 21 27 30 31 25 20 24 27 25 25 28 42
11 15 14 7 11 10 5 3 22 23 31 19 13 9 7 10 14 14 14 12 12 9 6 7 10 7 4 9 11 14 18 24 25 19 25 25 26 25 18 24 26 17 16 23 29
6 8 10 8 5 6 4 17 18 18 17 12 10 15 11 9 13 14 12 11 10 8 6 10 10 3 5 10 14 15 20 22 17 14 23 26 34 31 19 23 22 22 19 18 22
6 5 5 7 5 5 7 9 10 20 16 22 17 16 14 12 12 10 11 11 8 6 6 8 2 6 11 14 15 16 19 21 22 23 28 24 28 13 14 20 16 13 11 11 12
8 12 17 15 10 10 10 16 15 17 12 12 10 10 9 8 11 12 13 9 6 1 3 8 3 6 10 13 11 21 14 12 16 17 11 20 10 23 22 18 16 12 12 16 11
20 20 16 14 13 10 13 14 11 8 5 5 7 8 11 8 13 11 10 7 6 6 5 4 5 8 11 12 8 15 15 18 21 25 26 23 12 12 13 17 22 17 14 12 11
18 19 16 16 17 17 17 16 13 5 4 5 8 16 13 10 8 11 10 6 5 7 12 9 11 14 10 10 13 19 21 17 15 15 7 7 10 6 12 15 13 16 11 11 12
19 18 15 15 16 18 20 18 7 8 7 8 16 17 13 12 11 8 6 4 2 2 3 6 7 9 11 13 9 8 8 5 3 3 3 6 5 9 18 7 7 11 10 13 10
24 22 19 18 25 24 12 11 10 13 17 21 18 15 12 10 8 7 6 2 2 3 8 4 2 4 6 11 8 10 7 4 4 3 3 7 8 12 12 1 11 9 16 13 14
23 23 23 14 10 15 20 26 12 16 19 20 17 13 8 7 6 5 3 2 1 2 3 4 4 7 7 5 3 5 7 13 6 11 3 7 12 16 15 17 12 10 18 21 20
20 18 15 15 19 20 32 26 22 25 17 10 7 7 11 8 4 3 2 2 3 4 7 5 6 7 6 8 6 6 11 5 5 3 2 8 8 18 18 19 23 18 23 20 18
17 17 16 19 23 29 34 25 23 20 17 11 12 13 9 8 4 2 2 1 4 6 2 2 2 3 8 6 10 11 8 6 4 2 2 2 4 13 13 23 23 24 25 27 26
12 14 15 19 26 28 29 25 22 21 20 16 15 11 8 7 7 6 14 9 10 13 12 7 6 5 8 12 9 11 11 8 2 4 7 4 8 14 20 28 30 31 30 33 30
13 14 14 18 21 22 22 22 20 18 17 13 9 10 9 5 7 11 15 13 14 14 9 8 4 3 2 3 8 9 9 4 6 6 10 3 3 22 25 28 31 31 30 29 29
9 10 14 17 19 19 22 21 21 19 18 14 12 13 14 13 9 11 12 14 14 11 9 7 11 10 6 5 12 12 11 2 3 14 22 18 20 15 18 21 22 23 24 23 22
4 6 6 16 17 15 12 18 21 18 14 11 10 10 10 8 11 11 11 10 12 11 10 8 9 10 9 9 12 14 20 15 25 18 16 24 21 18 16 16 17 17 17 15 14
9 9 10 14 15 16 14 15 15 13 11 10 10 8 7 8 10 8 9 9 9 8 6 4 3 6 8 11 12 14 13 12 18 23 24 22 19 15 15 13 12 12 10 8 7
7 9 8 11 13 13 13 11 11 9 7 8 7 8 6 6 6 7 7 8 5 5 4 4 2 3 3 4 4 5 8 11 13 12 15 17 17 16 13 11 8 6 5 2 3
Wind_Direction
286 280 275 269 262 259 254 248 246 241 249 247 237 249 260 262 259 268 263 254 251 256 260 258 252 253 247 244 243 242 240 249 251 258 259 263 248 237 238 237 224 228 238 240 239
289 289 292 285 276 264 256 248 242 232 234 245 233 249 252 258 257 251 251 255 259 259 255 253 253 251 247 246 241 240 247 254 263 264 265 262 256 246 238 238 227 228 227 233 238
308 309 304 300 302 285 265 259 245 235 218 240 232 247 257 257 264 252 261 258 255 250 238 235 253 257 250 252 250 250 252 261 262 264 263 263 255 251 248 239 234 226 228 231 237
310 314 311 299 306 302 305 242 253 242 233 220 239 237 234 238 234 231 245 247 225 220 243 252 261 261 261 257 250 253 260 268 270 265 263 263 268 259 253 253 239 230 233 229 233
298 301 305 300 291 288 287 286 236 246 239 226 231 230 243 219 229 242 260 245 244 250 256 262 261 267 264 265 258 265 273 266 273 272 270 268 261 264 260 254 252 241 228 236 234
287 295 293 279 277 280 282 278 252 228 234 218 220 216 225 223 227 234 243 249 241 253 257 256 257 262 269 264 263 267 274 275 271 282 284 277 274 267 277 277 255 244 235 228 239
299 288 276 266 265 268 269 269 234 216 217 213 220 226 219 223 238 233 236 235 240 244 253 258 262 266 272 275 271 269 270 273 286 283 294 289 274 272 303 305 284 248 237 231 230
299 288 269 263 256 258 258 265 224 207 210 211 212 225 194 205 238 231 234 238 235 235 245 252 260 268 277 274 269 280 280 294 234 287 287 295 288 289 293 301 298 274 245 234 228
312 301 264 252 231 238 244 228 209 201 204 198 209 228 210 222 237 211 208 222 221 223 235 248 248 256 267 276 283 273 288 287 294 286 297 300 292 295 310 299 278 269 254 239 232
341 333 11 253 223 211 215 138 160 173 190 190 204 155 162 190 209 188 198 210 213 213 228 242 249 258 270 276 287 298 300 293 289 297 294 287 286 300 304 284 268 260 257 248 231
350 23 58 102 151 163 187 159 138 158 168 159 152 170 153 178 175 176 198 198 192 192 219 264 258 271 285 299 300 295 293 292 302 304 289 289 294 304 299 278 269 265 283 261 242
24 56 68 95 121 133 178 208 128 161 135 140 123 148 142 157 165 165 175 194 198 208 233 249 272 249 255 293 300 302 293 299 316 334 317 306 295 305 279 272 274 273 290 279 239
68 70 80 97 103 106 120 133 168 139 98 134 160 149 153 161 162 172 182 191 195 213 229 265 253 272 276 283 290 295 285 293 300 321 320 323 312 323 294 268 252 253 262 235 218
87 85 81 97 104 104 129 162 110 109 92 96 119 151 142 156 141 155 173 187 192 204 266 286 191 265 271 280 283 287 288 304 295 307 310 304 292 290 292 273 260 239 245 227 231
64 74 79 77 79 92 132 153 130 106 89 101 132 126 140 137 146 159 169 180 201 181 219 243 226 264 278 294 267 277 293 296 288 281 291 278 261 282 268 266 261 238 233 230 218
67 70 68 73 71 78 118 140 141 68 58 101 132 134 122 120 135 157 168 184 217 243 253 262 265 269 283 277 293 291 295 299 282 261 253 261 234 273 326 307 237 223 211 217 217
67 76 83 87 83 88 110 114 92 55 108 91 121 125 113 112 118 133 134 154 149 259 284 283 264 271 279 296 303 309 333 314 301 204 249 334 287 295 319 276 229 204 199 192 195
51 58 64 79 93 103 95 90 68 97 110 115 122 121 111 101 110 131 132 133 251 253 310 324 284 268 292 310 294 292 266 242 292 338 315 352 338 349 49 138 130 173 198 194 154
72 79 76 64 69 98 100 88 88 106 108 114 113 106 91 106 124 117 75 38 12 261 290 300 288 288 322 300 306 328 302 310 264 265 325 346 17 34 108 123 158 157 136 138 136
81 89 62 90 105 112 106 99 113 112 112 105 96 108 116 118 129 139 179 277 260 261 277 282 300 356 84 60 27 333 314 302 315 341 31 347 19 3 74 106 118 104 123 108 118
84 87 75 100 108 108 95 97 109 102 102 99 107 126 83 76 104 161 216 134 304 296 300 296 65 47 87 49 24 354 348 325 300 300 57 25 14 28 80 106 100 93 100 90 95
89 88 95 114 114 102 100 107 109 110 106 98 104 89 87 85 57 58 56 59 84 82 64 57 44 63 88 65 33 20 2 15 350 35 58 85 32 84 90 99 95 95 90 80 83
101 97 107 128 113 103 108 110 111 111 106 103 96 87 97 112 77 65 59 53 56 55 40 45 20 326 302 11 27 16 25 10 117 106 41 67 71 82 80 85 86 85 85 89 88
109 101 106 125 124 110 108 116 116 116 108 105 95 96 93 90 94 83 68 62 59 57 59 65 66 68 100 53 16 15 16 207 133 105 105 117 118 109 104 99 97 98 97 95 91
119 117 125 133 133 126 115 124 129 125 115 106 104 103 99 101 101 79 72 67 60 65 75 81 71 75 78 60 61 51 60 91 122 109 123 131 124 121 117 111 107 103 98 95 93
91 106 133 146 147 138 134 133 139 138 126 114 108 89 69 108 93 70 68 60 61 67 79 75 66 82 76 82 83 72 81 93 106 118 119 125 127 132 131 131 123 116 106 95 81
133 130 142 153 155 156 147 140 150 155 153 135 126 107 103 92 76 75 59 51 44 58 71 58 61 56 40 21 101 69 76 105 116 121 128 144 148 149 152 150 144 134 116 67 355
Height
3052 3051 3049 3048 3048 3048 3049 3050 3052 3056 3060 3062 3063 3066 3067 3068 3069 3071 3072 3074 3076 3075 3076 3078 3079 3080 3082 3083 3084 3086 3086 3081 3081 3085 3085 3090 3090 3094 3093 3093 3098 3100 3102 3103 3104
3044 3042 3040 3039 3038 3038 3039 3041 3043 3047 3052 3054 3058 3060 3060 3063 3065 3068 3069 3070 3071 3071 3073 3074 3075 3078 3079 3079 3080 3081 3078 3078 3081 3081 3081 3083 3083 3086 3086 3086 3090 3092 3095 3096 3097
3037 3036 3034 3033 3031 3031 3031 3033 3035 3039 3043 3048 3052 3053 3055 3058 3062 3064 3064 3065 3066 3067 3068 3070 3072 3075 3075 3074 3075 3074 3071 3075 3076 3076 3074 3074 3075 3077 3076 3078 3083 3087 3089 3090 3091
3031 3028 3026 3025 3025 3023 3023 3025 3028 3032 3034 3041 3043 3047 3051 3054 3060 3058 3059 3059 3061 3063 3064 3066 3068 3069 3070 3072 3071 3069 3069 3071 3069 3071 3069 3067 3068 3066 3067 3068 3076 3079 3081 3082 3084
3023 3021 3020 3019 3018 3018 3017 3017 3020 3025 3029 3034 3038 3042 3045 3048 3053 3055 3056 3057 3058 3059 3060 3062 3064 3065 3067 3066 3065 3063 3066 3065 3066 3064 3062 3061 3059 3059 3056 3061 3065 3069 3074 3074 3076
3014 3012 3011 3010 3011 3011 3012 3012 3013 3018 3025 3028 3031 3035 3040 3043 3046 3050 3053 3054 3055 3056 3057 3059 3060 3061 3063 3063 3062 3061 3060 3060 3059 3058 3054 3053 3053 3051 3052 3056 3056 3057 3059 3063 3064
3004 3001 3001 3001 3002 3004 3006 3006 3008 3012 3020 3023 3020 3028 3032 3038 3042 3046 3049 3051 3052 3053 3054 3056 3057 3058 3059 3059 3057 3057 3057 3056 3054 3053 3051 3047 3044 3046 3048 3047 3045 3046 3048 3052 3056
2993 2991 2989 2992 2994 2998 3001 3002 3003 3008 3015 3011 3019 3027 3029 3035 3040 3044 3046 3048 3050 3051 3052 3053 3054 3055 3055 3056 3054 3055 3055 3053 3051 3049 3049 3046 3034 3042 3042 3040 3037 3037 3039 3042 3044
2987 2982 2980 2982 2987 2993 2996 2996 2999 3004 3009 3011 3020 3025 3029 3032 3036 3039 3043 3046 3047 3048 3048 3050 3052 3053 3053 3053 3054 3052 3052 3050 3048 3047 3045 3042 3031 3036 3035 3031 3029 3029 3030 3032 3034
2982 2977 2974 2977 2983 2988 2991 2992 2992 3002 3007 3011 3019 3025 3026 3030 3034 3036 3040 3044 3045 3046 3047 3049 3050 3050 3052 3052 3053 3052 3050 3047 3045 3044 3040 3034 3028 3028 3028 3023 3021 3022 3023 3024 3025
2983 2980 2979 2980 2983 2987 2991 2992 2999 3004 3004 3010 3017 3021 3025 3029 3032 3035 3038 3041 3043 3045 3046 3047 3049 3049 3050 3051 3050 3050 3048 3043 3040 3038 3032 3028 3023 3022 3021 3017 3015 3017 3017 3016 3017
2983 2983 2984 2985 2987 2990 2990 2990 2998 3002 3005 3012 3016 3021 3026 3028 3031 3035 3039 3042 3043 3044 3045 3048 3046 3048 3049 3049 3048 3047 3044 3039 3035 3034 3030 3025 3018 3016 3015 3013 3014 3013 3010 3008 3010
2985 2986 2986 2987 2989 2992 2994 2997 3002 3003 3008 3015 3019 3023 3028 3032 3032 3037 3040 3041 3042 3043 3045 3045 3047 3047 3047 3047 3045 3044 3041 3038 3035 3028 3026 3023 3013 3011 3010 3009 3010 3010 3009 3010 3011
2987 2990 2989 2991 2995 2994 2996 3000 3004 3007 3013 3021 3024 3026 3029 3031 3034 3037 3040 3043 3042 3044 3045 3045 3045 3045 3044 3043 3044 3040 3039 3035 3032 3031 3028 3027 3016 3008 3008 3007 3008 3008 3009 3011 3012
2995 2996 2995 2996 2996 2996 3000 3004 3008 3010 3016 3026 3025 3027 3029 3033 3036 3037 3040 3041 3043 3044 3046 3045 3044 3044 3043 3042 3042 3039 3036 3033 3031 3029 3027 3023 3020 3003 3003 3003 3003 3005 3007 3009 3009
3003 3003 3002 3003 3002 3002 3004 3008 3012 3014 3022 3027 3027 3029 3032 3034 3037 3038 3040 3042 3043 3043 3043 3043 3043 3043 3041 3041 3039 3035 3032 3028 3026 3025 3021 3016 3015 3003 3003 2999 2996 3000 3003 3006 3007
3011 3010 3009 3008 3007 3006 3009 3013 3015 3017 3027 3030 3029 3032 3034 3037 3038 3040 3041 3042 3043 3044 3043 3042 3040 3040 3040 3038 3036 3033 3031 3028 3025 3021 3019 3014 3013 3006 3001 2997 2997 2999 3002 3004 3006
3017 3016 3015 3012 3012 3014 3016 3016 3017 3025 3026 3031 3033 3035 3037 3039 3041 3041 3042 3043 3044 3044 3043 3042 3041 3039 3038 3037 3034 3032 3032 3030 3025 3020 3018 3015 3012 3007 3001 2999 3000 3001 3002 3000 3007
3023 3022 3022 3020 3018 3017 3019 3018 3026 3029 3032 3034 3036 3039 3039 3040 3042 3043 3043 3043 3043 3044 3045 3041 3039 3038 3036 3035 3035 3031 3029 3028 3024 3020 3019 3018 3014 3008 3002 3001 3002 3004 3003 3005 3007
3029 3028 3027 3024 3023 3024 3023 3024 3031 3033 3036 3038 3039 3041 3041 3042 3043 3043 3044 3043 3042 3042 3042 3041 3039 3037 3036 3035 3034 3031 3029 3026 3024 3022 3020 3018 3016 3015 3008 3007 3006 3007 3008 3010 3011
3033 3033 3033 3032 3031 3031 3027 3033 3036 3038 3038 3040 3040 3043 3043 3044 3043 3042 3043 3043 3041 3041 3040 3039 3040 3040 3038 3037 3034 3031 3027 3025 3026 3024 3023 3025 3026 3020 3016 3014 3014 3013 3014 3015 3015
3038 3037 3038 3038 3039 3035 3037 3038 3039 3041 3041 3042 3044 3044 3044 3044 3044 3043 3043 3042 3041 3040 3041 3041 3040 3039 3039 3037 3035 3031 3029 3025 3024 3028 3025 3027 3032 3028 3023 3021 3020 3021 3022 3022 3024
3042 3042 3043 3043 3042 3042 3042 3042 3044 3045 3045 3046 3046 3046 3046 3046 3047 3046 3044 3044 3043 3042 3043 3042 3042 3040 3040 3040 3037 3033 3030 3026 3026 3027 3027 3030 3036 3032 3032 3030 3029 3030 3030 3032 3034
3047 3047 3048 3048 3047 3047 3046 3047 3047 3049 3049 3049 3049 3048 3048 3047 3047 3048 3047 3046 3044 3044 3044 3044 3043 3042 3044 3044 3041 3035 3029 3025 3026 3028 3032 3036 3035 3037 3038 3038 3038 3039 3040 3040 3041
3052 3050 3050 3051 3051 3050 3051 3052 3051 3051 3051 3051 3051 3051 3051 3050 3049 3049 3049 3048 3047 3046 3045 3046 3045 3045 3043 3044 3043 3038 3032 3027 3030 3032 3033 3036 3038 3040 3042 3042 3043 3044 3045 3046 3047
3054 3053 3053 3052 3052 3052 3054 3054 3054 3054 3053 3053 3054 3053 3053 3053 3053 3051 3050 3050 3050 3049 3048 3047 3048 3047 3045 3044 3043 3042 3039 3036 3036 3036 3036 3039 3040 3043 3044 3046 3047 3048 3049 3050 3050
3057 3055 3055 3056 3055 3055 3056 3057 3057 3057 3056 3056 3055 3054 3055 3056 3054 3053 3052 3051 3050 3050 3049 3048 3047 3047 3046 3045 3044 3045 3043 3041 3040 3041 3042 3042 3043 3044 3046 3048 3049 3050 3051 3051 3052